Location: Eaton
(41.3139°N, 82.0207°W)
Time: 14:29:50
(UTC+00:00)

Cosmos 2219 Rocket - Pass Details

Date: 17 June 2021
Orbit: 829 x 845 km, 71.0° (Epoch: 02 August)

Event Time Altitude Azimuth Distance (km) Brightness Sun altitude
Exits shadow 04:11:01 23° 225° (SW) 1,709 3.5 -22.8°
Maximum altitude 04:14:28 59° 297° (WNW) 973 2.6 -23.0°
Drops below altitude 10° 04:20:05 10° 17° (NNE) 2,473 5.4 -23.4°
Sets 04:22:35 0° 21° (NNE) 3,410 6.2 -23.5°
